Location: Dvur Kralove nad Labem
(50.4330°N, 15.8170°E)
Time: 01:29:54
(UTC+02:00)

ISS - Pass Details

Date: 27 August 2022
Orbit: 414 x 417 km, 51.6° (Epoch: 24 September)

Event Time Altitude Azimuth Distance (km) Brightness Sun altitude
Exits shadow 04:40:04 15° 194° (SSW) 1,213 -1.9 -12.8°
Maximum altitude 04:42:04 26° 146° (SE) 864 -2.2 -12.5°
Drops below altitude 10° 04:44:56 10° 87° (E) 1,500 0.0 -12.1°
Sets 04:47:14 0° 75° (ENE) 2,365 1.7 -11.8°
